This is the latest recevied weather packets stored in our database for station/object VK4TW-13. If no packets are shown the sender has not sent any weather packets the latest 10 day(s).
| Time | Temp. | Humidity | Pressure | Rain* | Wind** | Luminosity | Snow |
|---|---|---|---|---|---|---|---|
| 1777672453 | 21.67° C | 100% | 1018.1 hPa | 0 mm | - | - | - |
| 1777671852 | 21.11° C | 100% | 1018.1 hPa | 0 mm | - | - | - |
| 1777671253 | 20.56° C | 100% | 1018 hPa | 0 mm | - | - | - |
| 1777670650 | 19.44° C | 100% | 1017.8 hPa | 0 mm | - | - | - |
| 1777670049 | 18.89° C | 100% | 1017.9 hPa | 0 mm | - | - | - |
| 1777669447 | 18.33° C | 100% | 1017.7 hPa | 0 mm | - | - | - |
| 1777668845 | 18.33° C | 100% | 1017.8 hPa | 0 mm | - | - | - |
| 1777667646 | 18.33° C | 100% | 1017.5 hPa | 0 mm | - | - | - |
| 1777667045 | 18.33° C | 100% | 1017.4 hPa | 0 mm | - | - | - |
| 1777666442 | 17.78° C | 100% | 1017.4 hPa | 0 mm | - | - | - |
| 1777665842 | 17.78° C | 100% | 1017.5 hPa | 0 mm | - | - | - |
| 1777665242 | 17.78° C | 100% | 1017.5 hPa | 0 mm | - | - | - |
| 1777664640 | 18.33° C | 100% | 1017.4 hPa | 0 mm | - | - | - |
| 1777664039 | 18.33° C | 100% | 1017.2 hPa | 0 mm | - | - | - |
| 1777663439 | 18.33° C | 100% | 1017.2 hPa | 0 mm | - | - | - |
| 1777662237 | 18.33° C | 100% | 1017.2 hPa | 0 mm | - | - | - |
| 1777661638 | 18.33° C | 100% | 1017.1 hPa | 0 mm | - | - | - |
| 1777661034 | 18.33° C | 100% | 1017 hPa | 0 mm | - | - | - |
| 1777660433 | 18.33° C | 100% | 1017.1 hPa | 0 mm | - | - | - |
| 1777659834 | 18.33° C | 100% | 1017.1 hPa | 0 mm | - | - | - |
| 1777659233 | 18.33° C | 100% | 1017.1 hPa | 0 mm | - | - | - |
| 1777658631 | 18.33° C | 100% | 1017.1 hPa | 0 mm | - | - | - |
| 1777658031 | 18.89° C | 100% | 1017 hPa | 0 mm | - | - | - |
| 1777657445 | 18.89° C | 100% | 1017.2 hPa | 0 mm | - | - | - |
| 1777656230 | 19.44° C | 100% | 1017.2 hPa | 0 mm | - | - | - |
* Rain since midnight (hover to see other rain measurements)
** Current wind speed in m/s (hover to see current wind gust speed)